Regional Weather Roundup
Issued by NWS Newport/Morehead, NC

Current Version | Previous Version | Graphics & Text | Print | Product List | Glossary Off
Versions: 1 2 3 4 5 6 7 8 9 10 11 12 13 14 15 16 17 18 19 20 21 22 23 24 25 26 27 28 29 30 31 32 33 34 35 36 37 38 39 40 41 42 43 44 45 46 47 48 49 50
755 ASUS42 KMHX 232113 RWRMHX WEATHER ROUNDUP FOR EASTERN NORTH CAROLINA NATIONAL WEATHER SERVICE NEWPORT/MOREHEAD CITY NC 500 PM EDT TUE MAY 23 2017 NOTE: "FAIR" INDICATES FEW OR NO CLOUDS BELOW 12,000 FEET WITH NO SIGNIFICANT WEATHER AND/OR OBSTRUCTIONS TO VISIBILITY NCZ015>017-031-032-045>047-102-103-232200- NORTH COAST CITY SKY/WX TMP DP RH WIND PRES REMARKS EDENTON RAIN 70 68 92 CALM 29.72F ELIZABETH CITY CLOUDY 67 67 100 E13 29.73F KITTY HAWK NOT AVBL MANTEO DRIZZLE 68 67 99 E9 29.73F $$ NCZ045>047-081-094-103-104-232200- CENTRAL COAST CITY SKY/WX TMP DP RH WIND PRES REMARKS FRISCO LGT RAIN 76 70 82 SW16G25 29.74F $$ NCZ095-097-098-100-101-232200- SOUTHERN COAST CITY SKY/WX TMP DP RH WIND PRES REMARKS BEAUFORT PTSUNNY 77 74 90 S16 29.73F CEDAR ISLAND NOT AVBL JACKSONVILLE LGT RAIN 75 73 93 S8 29.72R PINEY ISLAND PTCLDY N/A N/A N/A S13G21 29.72F WILMINGTON TSTM 69 68 96 SW15G35 29.75R VSB 1/2 $$ NCZ011>013-027>030-043-044-078>080-089-090>093-098-232200- COASTAL PLAIN CITY SKY/WX TMP DP RH WIND PRES REMARKS AHOSKIE DRIZZLE 65 64 97 NE5 29.73F CLINTON CLOUDY 74 72 92 S5 29.71F ELIZABETHTOWN DRIZZLE 72 71 96 S5 29.73S GOLDSBORO NOT AVBL GREENVILLE RAIN 70 70 100 NE5 29.74F HAVELOCK CLOUDY 77 70 79 S13 29.72F KENANSVILLE RAIN 73 72 94 SW3 29.71F FOG KINSTON CLOUDY 72 72 100 CALM 29.71F NEW BERN LGT RAIN 75 72 90 SW12 29.72S RICHLANDS TSTM 71 70 96 SW10 29.73S ROCKY MOUNT LGT RAIN 68 68 100 NE7 29.71F FOG WASHINGTON HVY RAIN 70 69 98 N8 29.70F VSB 3/4 WHITEVILLE LGT RAIN 72 70 95 S8 29.73R $$ AMZ130-135-150-152-154-156-158-170-250-252-270-ANZ085-086-088-633-658-670-232200- MARINE OBSERVATIONS STATION/POSITION TIME TEMP WIND PRES WAVE SWELL AIR SEA DIR/SP/G HT/PER HT/PER (UTC) (F) (DEG/KT/KT) (MB) (FT/S) (FT/S) CHESAPEAKE LIGHT NOT AVBL 64 E VA BEACH 2050 67 65 70/ 17/ 23 1007.6 4/ 5 2/ 8 DUCK 2048 66 65 90/ 12/ 13 1006.4 2 E DUCK 2030 65 N/A 3/ 8 OREGON INLET 2042 73 70 190/ 14/ 19 1006.2 13E OREGON INLT 2048 66 N/A 4/ 5 2/13 HATTERAS CG 2048 74 74 200/ 15/ 19 1006.8 DIAMOND BUOY 2050 75 77 200/ 23/ 27 1007.0 6/ 6 2/12 CAPE LOOKOUT 2100 76 190/ 15/ 16 1006.5 BEAUFORT LAB 2048 76 74 200/ 16/ 19 1006.0 30 SE NEW RVR IN 2008 76 77 220/ 12/ 16 1007.7 30 SE NEW RVR IN 2043 77 N/A 6/ 7 27 SE WRIGHTSVLE 2008 75 75 200/ 12/ 16 1007.2 5 SE WRIGHTSVLE 2008 75 75 200/ 10/ 16 1007.4 225 S CAPE HAT 2050 77 76 200/ 17/ 21 1011.8 4/ 6 2/13 41 SE CHARLESTON 2050 77 78 210/ 17/ 21 1007.8 5/ 6 2/ 8 $$

USA.gov is the U.S. government's official web portal to all federal, state and local government web resources and services.